Theta_e
301 301 302 302 302 302 301 301 301 301 301 302 302 303 303 304 304 305 306 308 309 310 311 311 311 311 311 310 309 308 307 307 306 308 308 307 306 306 305 305 305 304 304
301 301 301 301 301 300 300 300 300 300 300 300 299 300 300 301 301 301 302 303 304 305 306 307 307 308 308 308 308 307 306 306 305 306 306 305 304 304 303 302 302 301 301
299 299 298 299 299 299 299 299 299 299 299 299 298 298 298 298 298 298 299 300 301 302 302 302 303 305 305 305 306 305 306 305 305 304 304 304 303 302 300 299 298 297 296
297 297 297 296 296 296 296 296 296 296 297 297 297 297 296 296 296 296 296 297 297 297 298 299 299 301 302 303 303 303 303 304 303 301 301 301 300 297 295 293 292 292 291
296 295 295 295 295 295 295 295 295 295 295 295 295 295 295 295 294 294 294 294 294 294 295 296 297 298 299 299 300 301 301 301 300 300 299 299 296 290 290 292 289 289 288
294 293 293 293 293 293 293 293 293 293 293 293 293 292 293 293 293 292 292 292 292 292 293 293 294 296 297 297 297 297 297 297 297 297 298 298 297 295 291 290 288 285 286
292 292 292 293 293 292 292 292 292 291 291 291 291 290 290 291 291 290 290 291 291 291 291 292 293 293 294 294 294 294 294 294 294 294 294 295 295 295 292 288 287 286 287
293 292 292 292 292 292 291 291 290 289 289 289 289 289 288 289 289 289 289 289 289 290 290 291 291 291 290 291 290 290 291 291 291 291 291 291 292 293 292 291 288 286 284
292 291 291 290 290 290 290 289 288 288 287 287 287 288 288 289 289 288 288 288 288 288 289 289 289 289 289 289 288 288 289 289 289 289 289 290 290 290 290 288 285 284 285
291 291 291 290 290 289 289 288 288 286 285 285 286 288 287 287 287 287 286 286 287 287 287 288 288 288 287 287 287 288 288 288 288 287 287 288 288 288 287 287 285 285 284
291 290 289 289 288 287 286 286 286 285 285 285 284 285 285 286 286 286 285 285 286 286 287 288 287 286 286 286 287 287 288 287 287 286 286 286 285 285 285 284 285 285 286
288 288 287 287 286 286 285 285 285 285 285 285 284 284 284 284 285 285 284 285 286 287 287 286 286 286 286 286 287 287 287 286 286 286 286 285 285 284 284 284 284 285 285
286 285 285 285 284 284 283 283 283 285 285 286 284 284 284 284 284 285 285 285 286 285 285 284 284 285 285 286 286 286 286 285 286 286 286 284 284 283 283 283 283 283 283
283 283 282 282 282 282 281 281 282 283 285 285 285 285 285 285 285 284 285 285 285 284 284 285 285 285 286 285 285 285 285 285 285 285 284 283 283 282 282 281 280 280 279
280 279 279 278 277 278 279 280 281 282 283 284 285 284 284 285 285 284 285 285 284 284 284 285 285 286 286 285 285 284 285 285 285 284 284 283 282 281 280 280 280 279 278
276 275 275 275 275 276 277 278 280 282 282 283 284 283 283 285 285 285 285 285 284 284 284 285 284 284 284 284 284 283 282 283 283 283 283 282 281 280 279 279 278 278 277
273 273 272 272 273 274 275 277 278 280 281 282 283 282 282 282 284 285 286 285 284 284 282 281 281 280 280 280 279 279 279 280 281 281 280 279 279 278 278 277 277 277 275
272 272 272 271 272 273 274 275 276 278 280 281 282 282 281 281 283 285 285 284 282 281 279 277 277 277 277 277 277 277 278 278 278 278 278 277 277 277 277 276 275 275 274
271 270 271 270 270 271 271 273 275 277 279 280 280 280 280 279 280 282 283 282 278 277 276 276 276 276 276 276 276 276 276 276 275 275 275 275 275 274 273 273 272 272 272
271 271 271 270 269 270 272 273 275 277 279 279 278 278 278 278 277 278 277 277 276 275 274 274 274 274 274 274 273 273 273 274 273 273 273 273 273 272 272 271 271 270 270
268 268 269 268 269 270 271 272 274 276 278 277 276 275 275 276 274 273 273 273 273 273 273 273 272 272 271 271 271 270 270 270 270 269 269 269 269 269 269 268 268 268 267
267 266 267 267 268 270 271 272 274 276 276 275 273 273 272 273 272 271 271 271 271 271 270 269 269 269 269 269 269 269 269 268 268 268 267 267 267 267 266 266 266 265 265
266 266 267 268 268 269 270 272 273 274 273 272 271 271 271 270 270 270 269 269 268 268 268 268 268 268 268 268 267 267 267 267 266 266 266 266 266 265 265 265 264 264 264
266 266 266 267 268 268 269 270 270 270 270 270 269 269 268 268 268 268 267 267 267 267 267 267 267 266 266 266 266 266 265 265 265 265 265 264 264 264 264 264 263 263 263
265 265 265 265 266 266 267 267 267 267 267 267 267 267 267 266 266 266 266 266 266 266 266 266 265 265 265 265 265 264 264 264 264 264 264 264 263 263 263 263 263 262 262
264 264 264 264 264 264 265 265 265 265 265 265 266 266 266 266 265 265 265 265 265 265 265 264 264 264 264 264 263 263 263 263 263 263 263 263 263 263 263 262 262 261 261
Wind_Speed
17 16 16 16 15 14 14 14 15 14 15 15 16 17 19 20 20 20 21 22 24 26 27 32 35 34 35 33 33 35 33 30 19 43 31 29 30 32 33 34 37 41 43
16 16 16 16 17 17 17 18 19 19 19 19 19 19 19 20 21 22 22 23 23 25 27 28 32 30 34 34 32 32 33 32 30 31 34 28 31 33 34 35 37 39 41
16 16 16 17 18 18 18 19 19 20 21 22 23 23 23 23 23 22 22 23 23 25 26 27 29 28 32 31 30 32 32 31 33 32 36 30 30 30 29 32 34 36 37
14 14 15 16 16 16 17 18 19 21 21 23 24 25 26 26 26 26 26 24 24 25 27 29 31 30 31 31 30 32 34 33 30 28 30 28 25 27 27 26 27 32 33
9 10 11 12 13 15 17 19 20 21 22 23 24 25 26 27 27 27 28 29 30 31 30 30 30 30 31 34 35 32 29 29 28 25 23 23 19 15 17 20 21 20 24
7 7 9 12 14 16 18 20 21 22 22 23 23 25 27 28 28 25 24 28 28 29 31 31 31 29 29 30 31 33 33 28 25 22 26 23 25 20 19 21 17 7 3
6 9 12 15 16 19 21 22 22 22 23 24 23 25 26 27 28 25 25 27 28 25 26 29 31 30 29 29 29 30 32 31 31 28 27 28 28 22 23 19 18 12 10
9 12 16 18 19 21 22 23 22 21 22 23 25 26 26 29 26 25 25 27 28 29 28 30 29 29 28 28 29 30 31 31 31 30 30 33 29 28 23 22 19 12 5
11 14 18 21 22 23 24 22 22 23 23 26 28 29 30 31 29 26 25 27 24 26 27 27 27 27 27 24 24 26 25 26 27 22 22 23 21 20 16 15 11 11 4
15 19 21 23 25 25 24 24 25 25 26 27 31 29 28 30 28 27 25 24 23 22 21 23 26 24 22 21 22 24 22 21 21 17 13 10 8 7 8 10 12 10 4
16 19 21 21 23 24 25 25 26 26 27 24 23 27 28 25 28 26 24 22 21 23 24 22 22 21 21 20 19 21 20 20 14 8 4 0 3 6 6 4 9 9 2
18 21 22 23 23 24 25 27 24 22 21 22 21 23 19 22 22 23 21 19 20 22 19 18 21 20 20 19 17 14 10 9 6 3 4 7 9 8 7 7 8 7 4
19 22 23 24 24 23 23 24 19 18 18 19 19 20 21 20 22 21 16 16 13 14 16 19 19 16 14 10 8 7 5 3 1 2 5 8 9 12 11 13 12 12 13
21 23 24 24 25 24 21 18 18 18 17 18 18 18 20 20 18 15 14 15 14 14 14 13 11 9 7 7 7 6 5 4 4 6 7 10 11 10 9 8 9 8 11
20 21 21 19 20 23 21 20 20 21 21 21 19 18 19 20 18 15 15 13 11 11 12 8 7 7 8 9 9 9 9 9 10 10 8 7 8 7 8 7 7 7 7
20 17 17 21 20 19 20 25 18 21 22 22 22 18 18 19 17 12 9 8 8 6 4 6 7 8 8 9 9 10 14 13 11 9 9 7 7 7 7 7 7 7 7
19 20 18 18 17 18 18 19 22 20 18 19 18 17 14 12 11 11 7 7 5 1 4 5 6 7 7 8 9 9 10 11 9 10 9 8 7 7 5 6 6 6 7
18 19 18 16 16 17 18 20 20 20 19 17 13 17 16 13 11 4 8 7 1 5 5 5 5 6 7 8 8 8 8 9 9 9 9 8 7 6 5 5 5 5 5
18 17 18 18 17 18 19 20 20 21 20 18 13 14 15 11 13 11 11 7 7 7 7 7 7 7 7 7 7 7 7 8 7 7 7 6 6 4 5 4 4 5 5
18 19 20 19 17 18 17 19 19 19 18 13 10 10 12 10 8 3 5 8 10 9 8 7 7 6 6 6 5 5 5 5 5 5 5 4 4 3 3 3 3 2 3
17 17 18 17 16 17 17 19 19 19 15 10 6 6 9 9 7 7 9 9 9 9 8 7 6 5 5 4 4 3 3 3 2 2 2 2 2 2 2 3 2 3 3
13 13 14 15 16 16 17 18 18 16 11 8 7 3 3 7 9 9 9 9 9 8 7 6 4 3 2 2 1 1 0 0 0 0 1 1 1 2 2 2 3 3 3
11 13 13 13 13 16 15 13 12 10 6 7 7 6 5 5 7 8 8 7 6 6 4 3 2 2 2 2 2 2 2 2 2 2 1 1 2 2 2 2 3 3 2
11 11 11 11 11 12 11 10 7 6 5 4 5 4 4 5 6 6 6 5 4 4 3 4 4 4 5 5 4 4 4 4 3 3 3 2 2 2 3 3 3 2 3
9 9 8 9 9 8 9 7 5 3 2 2 2 3 3 4 3 3 4 4 5 6 6 7 7 8 8 8 7 7 6 6 5 4 4 4 4 4 4 3 4 4 4
8 8 8 7 6 7 6 6 5 4 3 2 2 3 3 4 5 6 7 7 9 10 11 12 12 12 12 12 11 10 10 9 8 7 6 6 6 7 7 6 7 7 7
Wind_Direction
65 61 59 56 51 45 35 25 13 5 358 349 338 327 319 311 305 298 290 285 279 275 269 267 264 261 256 257 250 248 244 239 249 274 271 271 268 265 263 262 265 267 271
61 55 49 43 37 30 23 16 9 2 0 355 349 342 334 325 316 306 300 294 288 282 278 273 271 269 260 258 253 253 247 245 245 265 271 265 262 264 264 261 263 263 264
56 52 44 37 30 23 16 8 3 358 355 350 346 342 338 333 325 318 306 297 290 285 284 283 281 275 272 271 264 261 256 252 250 254 266 268 265 265 261 261 262 264 265
50 42 34 28 22 14 7 2 358 353 349 344 341 337 334 331 328 324 318 308 298 291 286 282 280 279 278 276 272 270 265 260 258 252 259 265 265 263 259 259 261 263 264
52 41 30 20 9 2 356 352 349 347 342 339 335 332 330 328 326 324 317 312 309 306 300 295 291 288 284 281 278 276 270 260 261 261 260 263 254 242 233 257 249 257 266
46 28 11 2 356 352 349 346 342 340 338 335 334 331 328 325 325 322 316 310 306 303 299 298 296 293 289 286 282 280 277 271 268 265 269 266 264 255 242 241 239 208 253
14 1 356 352 347 343 341 339 337 335 332 332 330 330 325 323 326 321 315 308 304 298 296 298 299 297 296 292 289 285 281 278 272 271 269 264 268 260 247 236 226 225 237
354 350 347 344 339 337 335 333 331 329 328 326 325 326 322 323 327 322 317 308 304 301 301 301 299 299 299 297 294 290 287 287 285 283 276 276 272 261 257 254 242 212 186
348 343 340 337 332 331 330 328 326 325 323 325 325 325 325 323 325 322 316 308 298 298 303 308 306 303 302 299 290 286 288 286 291 290 282 278 279 270 262 236 178 172 163
338 333 329 328 326 323 323 322 321 322 319 321 321 325 325 321 323 319 317 311 305 303 305 304 311 306 303 302 297 294 286 293 297 300 301 289 269 248 235 234 196 183 129
322 320 319 320 318 316 316 317 319 320 319 317 311 318 320 323 323 323 318 307 299 301 303 304 308 311 311 307 298 293 294 301 298 280 271 25 94 134 157 184 183 168 108
318 317 316 316 316 314 311 312 309 304 299 308 309 313 313 316 326 326 320 309 305 300 304 307 312 314 312 309 305 299 299 297 288 247 129 100 102 88 97 130 149 169 102
314 314 314 314 314 314 310 307 300 296 289 303 303 303 310 314 315 327 328 327 320 312 310 310 311 315 323 330 342 334 346 345 295 80 77 81 100 112 107 100 101 102 107
308 309 309 311 312 312 307 299 295 291 284 290 295 300 307 311 309 317 327 321 319 322 322 327 326 328 360 2 12 16 22 41 90 94 100 109 114 106 101 110 99 93 87
301 305 307 303 304 306 305 299 290 281 274 282 283 296 308 306 308 306 312 318 327 327 331 349 5 15 16 23 36 42 51 69 86 98 94 96 97 93 81 81 101 80 88
304 306 303 306 307 303 301 301 289 280 278 279 269 277 296 303 299 299 300 305 317 330 10 18 31 35 39 32 36 42 57 59 62 73 74 75 76 79 83 78 87 93 102
299 301 303 301 297 296 297 297 300 301 288 287 263 265 279 305 306 285 268 276 317 344 57 37 36 42 38 42 45 43 45 50 55 63 63 66 76 77 72 76 78 88 92
296 298 298 294 296 300 298 295 292 290 295 290 273 258 268 277 278 245 217 241 113 88 86 73 58 55 56 59 60 57 59 59 61 65 70 69 69 72 73 67 65 84 97
306 306 307 304 299 297 296 292 287 283 279 274 274 275 264 262 272 267 241 208 149 120 110 100 91 84 79 79 76 75 73 72 71 68 67 68 65 64 77 79 86 99 102
306 308 309 304 299 297 295 291 288 283 277 266 265 273 274 262 243 217 150 143 136 129 123 114 104 101 95 89 80 76 74 73 72 75 77 77 77 84 93 97 99 105 96
307 307 307 304 296 295 293 291 288 284 270 251 252 284 277 226 189 159 141 135 134 132 129 129 124 113 101 92 87 81 78 78 81 80 81 87 98 106 117 120 107 102 111
306 303 301 298 299 299 296 296 294 283 255 228 221 210 208 174 158 150 144 139 136 136 139 137 133 129 121 116 113 104 157 230 166 144 138 131 127 126 113 118 110 107 113
313 309 307 305 303 304 302 299 297 283 251 229 220 219 203 179 160 151 147 141 145 150 155 163 181 207 228 239 240 241 241 244 232 215 200 191 170 149 144 155 153 133 140
327 323 316 316 317 317 314 312 310 292 254 230 217 208 200 190 170 154 157 169 180 195 213 229 245 257 260 262 259 254 247 239 231 218 199 196 192 180 180 176 168 169 175
333 332 333 329 331 332 328 328 329 320 291 259 230 215 207 209 203 199 209 225 242 252 259 262 264 265 265 264 261 255 247 239 242 236 231 227 225 222 219 214 211 209 212
329 330 329 328 332 338 337 331 331 325 310 291 267 252 245 251 257 262 262 264 268 271 272 273 271 269 267 264 260 255 248 245 245 244 243 245 247 247 243 238 233 227 228